Time,TemperatureF,DewpointF,PressureIn,WindDirection,WindDirectionDegrees,WindSpeedMPH,WindSpeedGustMPH,Humidity,HourlyPrecipIn,Conditions,Clouds,dailyrainin,SoftwareType,DateUTC
2013-06-29 00:01:00,66.0,62.0,29.58,NNW,345,3.0,5.0,88,0.00,,,0.00,,2013-06-29 04:01:00,
2013-06-29 00:11:00,66.0,62.0,29.58,NNW,345,3.0,5.0,88,0.00,,,0.00,,2013-06-29 04:11:00,
2013-06-29 00:24:00,66.0,62.0,29.58,NNW,345,3.0,5.0,88,0.00,,,0.00,,2013-06-29 04:24:00,
2013-06-29 00:32:00,66.0,62.0,29.58,NNW,345,3.0,5.0,88,0.00,,,0.00,,2013-06-29 04:32:00,
2013-06-29 00:41:00,66.0,62.0,29.58,NNW,345,3.0,5.0,88,0.00,,,0.00,,2013-06-29 04:41:00,
2013-06-29 00:51:00,67.0,63.0,29.55,North,0,0.0,0.0,87,0.00,,,0.00,,2013-06-29 04:51:00,
2013-06-29 01:01:00,67.0,63.0,29.55,North,0,0.0,0.0,87,0.00,,,0.00,,2013-06-29 05:01:00,
2013-06-29 01:11:00,67.0,63.0,29.55,North,0,0.0,0.0,87,0.00,,,0.00,,2013-06-29 05:11:00,
2013-06-29 01:21:00,67.0,63.0,29.55,North,0,0.0,0.0,87,0.00,,,0.00,,2013-06-29 05:21:00,
2013-06-29 01:31:00,67.0,63.0,29.55,North,0,0.0,0.0,87,0.00,,,0.00,,2013-06-29 05:31:00,
2013-06-29 01:42:00,66.0,63.0,29.54,North,0,0.0,0.0,90,0.00,,,0.00,,2013-06-29 05:42:00,
2013-06-29 01:52:00,66.0,63.0,29.53,North,0,0.0,0.0,90,0.00,,,0.00,,2013-06-29 05:52:00,
2013-06-29 02:01:00,66.0,63.0,29.52,North,0,0.0,0.0,90,0.00,,,0.00,,2013-06-29 06:01:00,
2013-06-29 02:12:00,66.0,63.0,29.52,North,0,0.0,0.0,90,0.00,,,0.00,,2013-06-29 06:12:00,
2013-06-29 02:22:00,66.0,64.0,29.52,North,0,0.0,0.0,92,0.00,,,0.00,,2013-06-29 06:22:00,
2013-06-29 03:02:00,66.0,64.0,29.52,North,0,0.0,0.0,92,0.00,,,0.00,,2013-06-29 07:02:00,
2013-06-29 03:33:00,66.0,64.0,29.51,North,0,0.0,0.0,93,0.00,,,0.00,,2013-06-29 07:33:00,
2013-06-29 03:43:00,66.0,64.0,29.51,North,0,0.0,0.0,93,0.00,,,0.00,,2013-06-29 07:43:00,
2013-06-29 03:53:00,65.0,63.0,29.51,North,0,0.0,0.0,93,0.00,,,0.00,,2013-06-29 07:53:00,
2013-06-29 04:01:00,65.0,63.0,29.51,North,0,0.0,0.0,93,0.00,,,0.00,,2013-06-29 08:01:00,
2013-06-29 04:12:00,65.0,63.0,29.51,North,0,0.0,0.0,93,0.00,,,0.00,,2013-06-29 08:12:00,
2013-06-29 04:22:00,65.0,64.0,29.51,North,0,0.0,0.0,95,0.00,,,0.00,,2013-06-29 08:22:00,
2013-06-29 04:33:00,65.0,64.0,29.51,North,0,0.0,0.0,95,0.00,,,0.00,,2013-06-29 08:33:00,
2013-06-29 04:43:00,65.0,64.0,29.50,North,0,0.0,0.0,95,0.00,,,0.00,,2013-06-29 08:43:00,
2013-06-29 04:52:00,65.0,63.0,29.51,North,0,0.0,0.0,94,0.00,,,0.00,,2013-06-29 08:52:00,
2013-06-29 05:02:00,65.0,64.0,29.50,North,0,0.0,0.0,95,0.00,,,0.00,,2013-06-29 09:02:00,
2013-06-29 05:22:00,65.0,64.0,29.51,North,0,0.0,0.0,95,0.00,,,0.00,,2013-06-29 09:22:00,
2013-06-29 05:42:00,64.0,63.0,29.51,North,0,0.0,0.0,95,0.00,,,0.00,,2013-06-29 09:42:00,
2013-06-29 05:53:00,64.0,63.0,29.51,North,0,0.0,0.0,95,0.00,,,0.00,,2013-06-29 09:53:00,
2013-06-29 06:01:00,64.0,63.0,29.51,North,0,0.0,0.0,95,0.00,,,0.00,,2013-06-29 10:01:00,
2013-06-29 06:11:00,64.0,63.0,29.52,North,0,0.0,0.0,95,0.00,,,0.00,,2013-06-29 10:11:00,
2013-06-29 06:22:00,64.0,63.0,29.52,North,0,0.0,0.0,95,0.00,,,0.00,,2013-06-29 10:22:00,
2013-06-29 06:33:00,64.0,63.0,29.52,North,0,0.0,0.0,95,0.00,,,0.00,,2013-06-29 10:33:00,
2013-06-29 06:43:00,63.0,62.0,29.52,North,0,0.0,0.0,95,0.00,,,0.00,,2013-06-29 10:43:00,
2013-06-29 06:52:00,63.0,62.0,29.52,North,0,0.0,0.0,95,0.00,,,0.00,,2013-06-29 10:52:00,
2013-06-29 07:02:00,63.0,62.0,29.52,North,0,0.0,0.0,95,0.00,,,0.00,,2013-06-29 11:02:00,
2013-06-29 07:11:00,63.0,62.0,29.52,North,0,0.0,0.0,95,0.00,,,0.00,,2013-06-29 11:11:00,
2013-06-29 07:23:00,63.0,62.0,29.52,North,0,0.0,0.0,95,0.00,,,0.00,,2013-06-29 11:23:00,
2013-06-29 07:33:00,63.0,62.0,29.52,North,0,0.0,0.0,95,0.00,,,0.00,,2013-06-29 11:33:00,
2013-06-29 07:43:00,64.0,63.0,29.53,North,0,0.0,0.0,95,0.00,,,0.00,,2013-06-29 11:43:00,
2013-06-29 07:53:00,64.0,63.0,29.53,North,0,0.0,0.0,95,0.00,,,0.00,,2013-06-29 11:53:00,
2013-06-29 08:02:00,64.0,63.0,29.53,North,0,0.0,0.0,95,0.00,,,0.00,,2013-06-29 12:02:00,
2013-06-29 08:43:00,67.0,66.0,29.54,WSW,258,0.0,0.0,95,0.00,,,0.00,,2013-06-29 12:43:00,
2013-06-29 08:53:00,67.0,66.0,29.54,WSW,258,0.0,0.0,95,0.00,,,0.00,,2013-06-29 12:53:00,
2013-06-29 09:11:00,68.0,67.0,29.54,WSW,253,0.0,0.0,95,0.00,,,0.00,,2013-06-29 13:11:00,
2013-06-29 09:23:00,69.0,67.0,29.54,WSW,253,0.0,0.0,93,0.00,,,0.00,,2013-06-29 13:23:00,
2013-06-29 09:34:00,69.0,67.0,29.54,WSW,253,0.0,0.0,93,0.00,,,0.00,,2013-06-29 13:34:00,
2013-06-29 09:43:00,71.0,68.0,29.54,SSW,200,0.0,0.0,90,0.00,,,0.00,,2013-06-29 13:43:00,
2013-06-29 10:44:00,73.0,66.0,29.53,SSE,167,0.0,0.0,78,0.00,,,0.00,,2013-06-29 14:44:00,
2013-06-29 10:53:00,73.0,66.0,29.53,SSE,167,0.0,0.0,78,0.00,,,0.00,,2013-06-29 14:53:00,
2013-06-29 11:11:00,74.0,66.0,29.53,WSW,258,0.0,0.0,75,0.00,,,0.00,,2013-06-29 15:11:00,
2013-06-29 11:22:00,74.0,66.0,29.53,WSW,258,0.0,0.0,75,0.00,,,0.00,,2013-06-29 15:22:00,
2013-06-29 11:33:00,74.0,64.0,29.53,WSW,258,0.0,0.0,72,0.00,,,0.00,,2013-06-29 15:33:00,
2013-06-29 11:42:00,74.0,63.0,29.53,WSW,256,0.0,0.0,69,0.00,,,0.00,,2013-06-29 15:42:00,
2013-06-29 11:53:00,74.0,62.0,29.53,North,351,3.0,7.0,67,0.00,,,0.00,,2013-06-29 15:53:00,
2013-06-29 12:02:00,74.0,62.0,29.53,North,0,0.0,0.0,67,0.00,,,0.00,,2013-06-29 16:02:00,
2013-06-29 12:12:00,74.0,62.0,29.53,NW,314,1.0,5.0,66,0.00,,,0.00,,2013-06-29 16:12:00,
2013-06-29 12:22:00,74.0,62.0,29.52,North,0,1.0,2.0,67,0.00,,,0.00,,2013-06-29 16:22:00,
2013-06-29 12:33:00,74.0,62.0,29.52,NNW,346,1.0,3.0,66,0.00,,,0.00,,2013-06-29 16:33:00,
2013-06-29 12:43:00,75.0,63.0,29.52,North,353,0.0,0.0,66,0.00,,,0.00,,2013-06-29 16:43:00,
2013-06-29 12:53:00,76.0,62.0,29.52,West,265,0.0,5.0,63,0.00,,,0.00,,2013-06-29 16:53:00,
2013-06-29 13:01:00,76.0,61.0,29.52,NNE,14,0.0,0.0,59,0.00,,,0.00,,2013-06-29 17:01:00,
2013-06-29 13:12:00,76.0,62.0,29.52,NNE,14,0.0,0.0,61,0.01,,,0.01,,2013-06-29 17:12:00,
2013-06-29 13:23:00,75.0,61.0,29.52,NW,318,0.0,0.0,62,0.01,,,0.01,,2013-06-29 17:23:00,
2013-06-29 13:34:00,75.0,62.0,29.52,NNW,343,1.0,5.0,65,0.01,,,0.01,,2013-06-29 17:34:00,
2013-06-29 13:42:00,75.0,62.0,29.52,West,260,0.0,0.0,63,0.01,,,0.01,,2013-06-29 17:42:00,
2013-06-29 13:52:00,75.0,62.0,29.52,SW,232,1.0,3.0,63,0.01,,,0.01,,2013-06-29 17:52:00,
2013-06-29 14:02:00,74.0,61.0,29.53,NW,305,0.0,0.0,65,0.01,,,0.01,,2013-06-29 18:02:00,
2013-06-29 14:12:00,74.0,62.0,29.53,NW,305,0.0,0.0,66,0.00,,,0.01,,2013-06-29 18:12:00,
2013-06-29 14:22:00,74.0,62.0,29.52,North,353,6.0,9.0,66,0.00,,,0.01,,2013-06-29 18:22:00,
2013-06-29 14:34:00,74.0,62.0,29.52,North,11,2.0,5.0,67,0.00,,,0.01,,2013-06-29 18:34:00,
2013-06-29 14:43:00,74.0,62.0,29.53,North,2,2.0,5.0,67,0.00,,,0.01,,2013-06-29 18:43:00,
2013-06-29 14:53:00,74.0,62.0,29.53,North,1,3.0,6.0,67,0.00,,,0.01,,2013-06-29 18:53:00,
2013-06-29 15:01:00,75.0,63.0,29.52,North,8,2.0,6.0,67,0.00,,,0.01,,2013-06-29 19:01:00,
2013-06-29 15:12:00,76.0,64.0,29.52,NNW,342,0.0,0.0,66,0.00,,,0.01,,2013-06-29 19:12:00,
2013-06-29 15:22:00,77.0,63.0,29.52,North,4,1.0,0.0,63,0.00,,,0.01,,2013-06-29 19:22:00,
2013-06-29 15:34:00,78.0,63.0,29.52,North,350,0.0,0.0,61,0.00,,,0.01,,2013-06-29 19:34:00,
2013-06-29 15:43:00,78.0,62.0,29.52,North,352,1.0,6.0,57,0.00,,,0.01,,2013-06-29 19:43:00,
2013-06-29 15:54:00,77.0,59.0,29.52,NNW,335,0.0,0.0,54,0.00,,,0.01,,2013-06-29 19:54:00,
2013-06-29 16:02:00,77.0,60.0,29.52,NW,309,0.0,0.0,55,0.00,,,0.01,,2013-06-29 20:02:00,
2013-06-29 16:12:00,76.0,59.0,29.52,NW,309,0.0,0.0,55,0.00,,,0.01,,2013-06-29 20:12:00,
2013-06-29 16:23:00,76.0,59.0,29.52,NW,309,0.0,0.0,55,0.00,,,0.01,,2013-06-29 20:23:00,
2013-06-29 16:33:00,77.0,60.0,29.51,West,263,0.0,0.0,55,0.00,,,0.01,,2013-06-29 20:33:00,
2013-06-29 16:43:00,76.0,60.0,29.51,West,263,0.0,0.0,57,0.00,,,0.01,,2013-06-29 20:43:00,
2013-06-29 16:52:00,77.0,61.0,29.52,West,263,0.0,0.0,58,0.00,,,0.01,,2013-06-29 20:52:00,
2013-06-29 17:02:00,77.0,62.0,29.53,West,268,0.0,3.0,59,0.00,,,0.01,,2013-06-29 21:02:00,
2013-06-29 17:11:00,77.0,61.0,29.54,WSW,239,0.0,0.0,57,0.00,,,0.01,,2013-06-29 21:11:00,
2013-06-29 17:22:00,77.0,61.0,29.54,WSW,241,0.0,0.0,58,0.00,,,0.01,,2013-06-29 21:22:00,
2013-06-29 17:32:00,76.0,60.0,29.54,West,260,0.0,0.0,58,0.00,,,0.01,,2013-06-29 21:32:00,
2013-06-29 17:42:00,76.0,62.0,29.54,South,191,0.0,0.0,61,0.00,,,0.01,,2013-06-29 21:42:00,
2013-06-29 17:52:00,76.0,62.0,29.53,South,191,0.0,0.0,62,0.00,,,0.01,,2013-06-29 21:52:00,
2013-06-29 18:01:00,76.0,62.0,29.51,South,191,0.0,0.0,62,0.00,,,0.01,,2013-06-29 22:01:00,
2013-06-29 18:11:00,76.0,62.0,29.51,SSW,200,1.0,5.0,63,0.00,,,0.01,,2013-06-29 22:11:00,
2013-06-29 18:21:00,76.0,62.0,29.51,South,179,0.0,0.0,63,0.00,,,0.01,,2013-06-29 22:21:00,
2013-06-29 18:33:00,76.0,63.0,29.52,South,179,0.0,0.0,65,0.00,,,0.01,,2013-06-29 22:33:00,
2013-06-29 18:43:00,75.0,63.0,29.53,South,179,0.0,0.0,66,0.00,,,0.01,,2013-06-29 22:43:00,
2013-06-29 18:53:00,75.0,64.0,29.52,South,179,0.0,0.0,69,0.00,,,0.01,,2013-06-29 22:53:00,
2013-06-29 19:02:00,74.0,64.0,29.52,South,179,0.0,0.0,72,0.01,,,0.02,,2013-06-29 23:02:00,
2013-06-29 19:12:00,73.0,64.0,29.53,South,179,0.0,0.0,73,0.01,,,0.02,,2013-06-29 23:12:00,
2013-06-29 19:23:00,73.0,65.0,29.52,SSW,213,3.0,3.0,75,0.01,,,0.02,,2013-06-29 23:23:00,
2013-06-29 19:34:00,72.0,64.0,29.54,SSW,213,0.0,0.0,77,0.01,,,0.02,,2013-06-29 23:34:00,
2013-06-29 19:43:00,72.0,65.0,29.54,SSW,213,0.0,0.0,79,0.01,,,0.02,,2013-06-29 23:43:00,
2013-06-29 19:52:00,71.0,65.0,29.53,SSW,213,0.0,0.0,81,0.01,,,0.02,,2013-06-29 23:52:00,
2013-06-29 20:02:00,71.0,65.0,29.54,SSW,213,0.0,0.0,81,0.00,,,0.02,,2013-06-30 00:02:00,
2013-06-29 20:12:00,71.0,65.0,29.54,SSW,213,0.0,0.0,82,0.00,,,0.02,,2013-06-30 00:12:00,
2013-06-29 20:22:00,71.0,66.0,29.54,SSW,213,0.0,0.0,84,0.00,,,0.02,,2013-06-30 00:22:00,
2013-06-29 20:33:00,70.0,65.0,29.53,SSW,213,0.0,0.0,84,0.00,,,0.02,,2013-06-30 00:33:00,
2013-06-29 20:43:00,70.0,65.0,29.54,SSW,213,0.0,0.0,85,0.00,,,0.02,,2013-06-30 00:43:00,
2013-06-29 20:52:00,70.0,66.0,29.54,SSW,213,0.0,0.0,87,0.00,,,0.02,,2013-06-30 00:52:00,
2013-06-29 21:01:00,70.0,66.0,29.54,South,188,0.0,0.0,87,0.00,,,0.02,,2013-06-30 01:01:00,
2013-06-29 21:11:00,70.0,66.0,29.54,South,188,0.0,0.0,88,0.00,,,0.02,,2013-06-30 01:11:00,
2013-06-29 21:22:00,70.0,66.0,29.55,South,188,0.0,0.0,88,0.00,,,0.02,,2013-06-30 01:22:00,
2013-06-29 21:33:00,70.0,66.0,29.54,South,188,0.0,0.0,88,0.00,,,0.02,,2013-06-30 01:33:00,
2013-06-29 21:44:00,69.0,66.0,29.54,South,188,0.0,0.0,90,0.00,,,0.02,,2013-06-30 01:44:00,
2013-06-29 21:53:00,69.0,66.0,29.54,South,188,0.0,0.0,90,0.00,,,0.02,,2013-06-30 01:53:00,
2013-06-29 22:02:00,69.0,66.0,29.55,South,188,0.0,0.0,90,0.00,,,0.02,,2013-06-30 02:02:00,
2013-06-29 22:11:00,69.0,66.0,29.56,South,188,0.0,0.0,91,0.00,,,0.02,,2013-06-30 02:11:00,
2013-06-29 22:24:00,69.0,67.0,29.57,South,188,0.0,0.0,92,0.00,,,0.02,,2013-06-30 02:24:00,
2013-06-29 22:34:00,69.0,67.0,29.58,South,188,0.0,0.0,92,0.00,,,0.02,,2013-06-30 02:34:00,
2013-06-29 22:43:00,68.0,66.0,29.58,South,188,0.0,0.0,93,0.01,,,0.03,,2013-06-30 02:43:00,
2013-06-29 22:53:00,68.0,66.0,29.58,South,188,0.0,0.0,93,0.01,,,0.03,,2013-06-30 02:53:00,
2013-06-29 23:01:00,68.0,66.0,29.58,South,188,0.0,0.0,93,0.01,,,0.03,,2013-06-30 03:01:00,
2013-06-29 23:12:00,68.0,66.0,29.58,South,188,0.0,0.0,93,0.01,,,0.03,,2013-06-30 03:12:00,
2013-06-29 23:23:00,68.0,67.0,29.58,South,188,0.0,0.0,95,0.01,,,0.03,,2013-06-30 03:23:00,
2013-06-29 23:33:00,68.0,67.0,29.58,South,188,0.0,0.0,95,0.01,,,0.03,,2013-06-30 03:33:00,
2013-06-29 23:43:00,68.0,67.0,29.57,South,188,0.0,0.0,95,0.00,,,0.03,,2013-06-30 03:43:00,
2013-06-29 23:53:00,68.0,67.0,29.57,South,188,0.0,0.0,95,0.00,,,0.03,,2013-06-30 03:53:00,